Location: Béaulencourt
(50.0796°N, 2.8795°E)
Time: 23:34:17
(UTC+00:00)

CZ-4C R/B - Pass Details

Date: 20 January 2026
Orbit: 483 x 1496 km, 63.4° (Epoch: 9 February)

Event Time Altitude Azimuth Distance (km) Brightness Sun altitude
Exits shadow 03:28:16 22° 21° (NNE) 1,989 4.3 -39.3°
Drops below altitude 10° 03:32:21 10° 55° (NE) 2,955 5.6 -38.7°
Sets 03:36:03 0° 68° (ENE) 4,107 6.7 -38.1°
